FW5262 Weather Reports


time (UTC)temp
C
wind
direction
speed
KPH
gust
KPH
rain 1hr
cm
rain 24hr
cm
rain mn
cm
humidity
%
barometer
mb
20260510000059 31 180 11.3 17.7 0.00 0.00 0.00 34 938.6
20260509235558 31 161 9.7 17.7 0.00 0.00 0.00 35 938.6
20260509235100 31 205 9.7 19.3 0.00 0.00 0.00 34 938.6
20260509234558 32 203 11.3 19.3 0.00 0.00 0.00 33 938.6
20260509234054 32 190 9.7 17.7 0.00 0.00 0.00 33 938.6
20260509233552 32 196 9.7 17.7 0.00 0.00 0.00 32 938.6
20260509233324 32 204 8.0 17.7 0.00 0.00 0.00 32 938.7
20260509232553 32 262 8.0 17.7 0.00 0.00 0.00 35 938.6
20260509232052 32 157 8.0 16.1 0.00 0.00 0.00 37 938.7
20260509231552 32 185 6.4 17.7 0.00 0.00 0.00 34 938.7
20260509231052 32 242 8.0 17.7 0.00 0.00 0.00 34 938.7
20260509230553 32 228 9.7 20.9 0.00 0.00 0.00 35 938.7
20260509230106 32 193 9.7 16.1 0.00 0.00 0.00 33 938.7
20260509230053 32 189 9.7 20.9 0.00 0.00 0.00 34 938.8
20260509225326 32 186 8.0 16.1 0.00 0.00 0.00 33 938.7
20260509224551 32 175 8.0 17.7 0.00 0.00 0.00 35 938.8
20260509224049 32 226 8.0 17.7 0.00 0.00 0.00 34 938.7
20260509223548 32 198 8.0 17.7 0.00 0.00 0.00 35 938.6
20260509223043 32 202 9.7 20.9 0.00 0.00 0.00 32 938.7
20260509222536 32 194 9.7 20.9 0.00 0.00 0.00 34 938.7
20260509222301 32 212 9.7 19.3 0.00 0.00 0.00 35 938.7
20260509221525 32 202 11.3 24.1 0.00 0.00 0.00 36 938.7
20260509221019 32 198 11.3 24.1 0.00 0.00 0.00 37 938.7
20260509220512 32 213 11.3 20.9 0.00 0.00 0.00 33 938.7
20260509220007 32 136 9.7 20.9 0.00 0.00 0.00 36 938.7
20260509215501 32 150 11.3 20.9 0.00 0.00 0.00 38 938.7
20260509214954 32 158 11.3 22.5 0.00 0.00 0.00 35 938.8
20260509214720 32 143 11.3 22.5 0.00 0.00 0.00 36 938.8
20260509213942 32 117 11.3 22.5 0.00 0.00 0.00 37 938.8
20260509213436 32 171 11.3 22.5 0.00 0.00 0.00 37 938.9
20260509212931 32 206 9.7 19.3 0.00 0.00 0.00 38 938.9
20260509212425 32 185 9.7 20.9 0.00 0.00 0.00 37 938.9
20260509211919 32 214 11.3 22.5 0.00 0.00 0.00 37 939.1
20260509211413 32 205 9.7 22.5 0.00 0.00 0.00 40 939.2
20260509211139 32 201 9.7 14.5 0.00 0.00 0.00 41 939.2
20260509210401 32 194 8.0 22.5 0.00 0.00 0.00 36 939.3
20260509210125 32 221 9.7 20.9 0.00 0.00 0.00 37 939.5
20260509205619 32 202 11.3 22.5 0.00 0.00 0.00 37 939.5
20260509204843 32 169 9.7 20.9 0.00 0.00 0.00 39 939.6
20260509204838 32 194 9.7 20.9 0.00 0.00 0.00 40 939.7
20260509203831 32 204 8.0 19.3 0.00 0.00 0.00 42 939.7
20260509203324 32 180 11.3 20.9 0.00 0.00 0.00 38 939.8
20260509202819 32 134 12.9 22.5 0.00 0.00 0.00 39 940.0
20260509202312 31 171 9.7 22.5 0.00 0.00 0.00 39 940.0
20260509201807 32 180 8.0 20.9 0.00 0.00 0.00 39 940.0
20260509201301 32 207 11.3 20.9 0.00 0.00 0.00 40 940.1
20260509200754 32 252 11.3 19.3 0.00 0.00 0.00 38 940.2
20260509200249 32 164 9.7 20.9 0.00 0.00 0.00 37 940.2
20260509195742 32 130 9.7 20.9 0.00 0.00 0.00 41 940.2
20260509195237 31 108 8.0 20.9 0.00 0.00 0.00 40 940.3
20260509194731 31 205 6.4 17.7 0.00 0.00 0.00 43 940.4
20260509194225 31 244 6.4 16.1 0.00 0.00 0.00 43 940.5
20260509193718 31 229 8.0 17.7 0.00 0.00 0.00 42 940.6
20260509193443 31 228 8.0 17.7 0.00 0.00 0.00 40 940.7
20260509192706 31 155 8.0 16.1 0.00 0.00 0.00 43 940.7
20260509192257 31 188 9.7 22.5 0.00 0.00 0.00 42 940.8
20260509192200 31 182 11.3 22.5 0.00 0.00 0.00 42 940.7
20260509191949 31 175 9.7 20.9 0.00 0.00 0.00 44 940.8
20260509190643 31 205 9.7 22.5 0.00 0.00 0.00 44 940.8
20260509190136 31 211 9.7 22.5 0.00 0.00 0.00 43 940.9
20260509185901 31 194 8.0 19.3 0.00 0.00 0.00 43 940.9
20260509185125 31 171 8.0 19.3 0.00 0.00 0.00 44 941.0
20260509184619 30 174 9.7 19.3 0.00 0.00 0.00 45 941.1
20260509184343 30 225 8.0 22.5 0.00 0.00 0.00 45 941.0
20260509183607 30 185 8.0 22.5 0.00 0.00 0.00 49 941.2
20260509183101 30 217 8.0 20.9 0.00 0.00 0.00 46 941.2
20260509182554 30 207 8.0 20.9 0.00 0.00 0.00 52 941.3
20260509182049 30 181 9.7 20.9 0.00 0.00 0.00 47 941.4
20260509181543 30 186 11.3 20.9 0.00 0.00 0.00 47 941.5
20260509181036 30 236 8.0 19.3 0.00 0.00 0.00 50 941.5
20260509180531 29 212 8.0 16.1 0.00 0.00 0.00 50 941.6
20260509180025 29 187 9.7 17.7 0.00 0.00 0.00 52 941.7
20260509175526 29 218 11.3 17.7 0.00 0.00 0.00 54 941.7
20260509175306 29 133 8.0 16.1 0.00 0.00 0.00 54 941.7
20260509174526 29 154 8.0 16.1 0.00 0.00 0.00 55 941.8
20260509174026 29 200 9.7 16.1 0.00 0.00 0.00 54 941.9
20260509173527 29 181 9.7 19.3 0.00 0.00 0.00 55 941.9
20260509173030 28 167 8.0 19.3 0.00 0.00 0.00 53 942.0
20260509172533 28 178 8.0 19.3 0.00 0.00 0.00 57 942.2
20260509172528 28 199 6.4 14.5 0.00 0.00 0.00 58 942.1
20260509171524 28 228 8.0 19.3 0.00 0.00 0.00 57 942.2
20260509171022 28 117 9.7 19.3 0.00 0.00 0.00 56 942.3
20260509170522 28 121 8.0 19.3 0.00 0.00 0.00 57 942.2
20260509170021 28 156 6.4 16.1 0.00 0.00 0.00 60 942.3
20260509165523 27 206 9.7 17.7 0.00 0.00 0.00 61 942.3
20260509165024 27 192 11.3 19.3 0.00 0.00 0.00 59 942.4
20260509164518 27 202 9.7 19.3 0.00 0.00 0.00 60 942.5
20260509164018 27 183 9.7 20.9 0.00 0.00 0.00 62 942.5
20260509163517 27 191 9.7 20.9 0.00 0.00 0.00 62 942.5
20260509163019 27 184 8.0 17.7 0.00 0.00 0.00 62 942.5
20260509162519 27 247 8.0 14.5 0.00 0.00 0.00 63 942.5
20260509162017 26 200 8.0 17.7 0.00 0.00 0.00 65 942.4
20260509161518 26 221 9.7 20.9 0.00 0.00 0.00 64 942.4
20260509161019 26 205 9.7 20.9 0.00 0.00 0.00 64 942.3
20260509160519 26 260 9.7 20.9 0.00 0.00 0.00 68 942.3
20260509160014 26 237 9.7 20.9 0.00 0.00 0.00 68 942.3
20260509155514 26 217 9.7 20.9 0.00 0.00 0.00 67 942.4
20260509155015 26 258 9.7 20.9 0.00 0.00 0.00 70 942.4
20260509154514 25 190 11.3 20.9 0.00 0.00 0.00 70 942.4
20260509154012 25 199 9.7 24.1 0.00 0.00 0.00 70 942.5
20260509153512 25 254 9.7 24.1 0.00 0.00 0.00 72 942.4
20260509153013 25 186 8.0 19.3 0.00 0.00 0.00 73 942.4
20260509152513 25 228 9.7 20.9 0.00 0.00 0.00 74 942.4
20260509152012 25 198 11.3 22.5 0.00 0.00 0.00 74 942.4
20260509151505 24 236 11.3 22.5 0.00 0.00 0.00 74 942.4
20260509151231 24 269 12.9 25.7 0.00 0.00 0.00 74 942.4
20260509150453 24 235 12.9 25.7 0.00 0.00 0.00 76 942.4
20260509145948 23 198 9.7 19.3 0.00 0.00 0.00 77 942.4
20260509145714 23 241 8.0 19.3 0.00 0.00 0.00 80 942.4
20260509144935 23 198 6.4 16.1 0.00 0.00 0.00 81 942.5
20260509144701 22 225 8.0 17.7 0.00 0.00 0.00 82 942.5
20260509143923 22 231 8.0 17.7 0.00 0.00 0.00 84 942.7
20260509143418 22 257 8.0 17.7 0.00 0.00 0.00 84 942.7
20260509143138 21 207 8.0 14.5 0.00 0.00 0.00 86 942.8
20260509143012 21 248 6.4 17.7 0.00 0.00 0.00 85 942.7
20260509142130 21 198 9.7 16.1 0.00 0.00 0.00 86 942.9
20260509141354 21 182 8.0 16.1 0.00 0.00 0.00 86 942.9
20260509140847 21 160 6.4 14.5 0.00 0.00 0.00 87 942.9
20260509140342 20 248 6.4 14.5 0.00 0.00 0.00 89 942.9
20260509135836 20 267 6.4 16.1 0.00 0.00 0.00 89 942.9
20260509135330 20 230 6.4 16.1 0.00 0.00 0.00 91 943.0
20260509134824 20 242 6.4 12.9 0.00 0.00 0.00 92 942.9
20260509134318 19 246 4.8 12.9 0.00 0.00 0.00 93 942.8
20260509133812 19 235 4.8 11.3 0.00 0.00 0.00 94 942.8
20260509133306 18 234 6.4 16.1 0.00 0.00 0.00 94 942.8
20260509132759 18 215 6.4 16.1 0.00 0.00 0.00 94 942.8
20260509132254 18 257 4.8 12.9 0.00 0.00 0.00 95 942.9
20260509131747 18 218 3.2 6.4 0.00 0.00 0.00 96 942.7
20260509131242 18 225 1.6 6.4 0.00 0.00 0.00 96 942.7
20260509130736 18 244 1.6 4.8 0.00 0.00 0.00 95 942.6
20260509130230 17 244 1.6 3.2 0.00 0.00 0.00 95 942.6
20260509125723 17 244 1.6 4.8 0.00 0.00 0.00 95 942.4
20260509125218 17 208 1.6 4.8 0.00 0.00 0.00 96 942.4
20260509124942 17 212 3.2 6.4 0.00 0.00 0.00 95 942.3
20260509124206 17 225 3.2 8.0 0.00 0.00 0.00 95 942.3
20260509123659 16 244 3.2 8.0 0.00 0.00 0.00 95 942.3
20260509123420 15 207 3.2 6.4 0.00 0.00 0.00 95 942.3
20260509123255 16 188 3.2 4.8 0.00 0.00 0.00 95 942.4
20260509122141 15 201 1.6 6.4 0.00 0.00 0.00 94 942.2
20260509121636 15 283 1.6 3.2 0.00 0.00 0.00 93 942.3
20260509121400 15 283 1.6 4.8 0.00 0.00 0.00 93 942.3
20260509120118 16 271 1.6 3.2 0.00 0.00 0.00 93 942.3
20260509115611 16 271 1.6 4.8 0.00 0.00 0.00 93 942.1
20260509115106 16 283 1.6 4.8 0.00 0.00 0.00 93 942.1
20260509114830 16 237 1.6 4.8 0.00 0.00 0.00 93 942.0
20260509114053 16 173 1.6 4.8 0.00 0.00 0.00 93 941.9
20260509113818 16 134 1.6 4.8 0.00 0.00 0.00 93 941.8
20260509113041 16 134 1.6 4.8 0.00 0.00 0.00 92 941.7
20260509112535 16 154 1.6 3.2 0.00 0.00 0.00 92 941.6
20260509112030 16 154 1.6 4.8 0.00 0.00 0.00 92 941.5
20260509111524 16 154 3.2 6.4 0.00 0.00 0.00 92 941.5
20260509111018 16 132 3.2 6.4 0.00 0.00 0.00 92 941.6
20260509110743 16 108 1.6 4.8 0.00 0.00 0.00 92 941.5
20260509110005 16 122 3.2 6.4 0.00 0.00 0.00 92 941.5
20260509105731 16 121 3.2 6.4 0.00 0.00 0.00 92 941.4
20260509104954 17 130 4.8 9.7 0.00 0.00 0.00 92 941.3
20260509104448 17 131 4.8 9.7 0.00 0.00 0.00 92 941.3
20260509103941 17 130 4.8 11.3 0.00 0.00 0.00 92 941.4
20260509103708 17 112 6.4 11.3 0.00 0.00 0.00 92 941.5
20260509103200 17 96 6.4 14.5 0.00 0.00 0.00 92 941.5
20260509102424 17 92 8.0 14.5 0.00 0.00 0.00 92 941.5
20260509101918 17 114 8.0 12.9 0.00 0.00 0.00 92 941.6
20260509101412 17 142 4.8 12.9 0.00 0.00 0.00 92 941.6
20260509101136 17 118 3.2 9.7 0.00 0.00 0.00 91 941.7
20260509100400 17 122 4.8 8.0 0.00 0.00 0.00 91 941.8
20260509095853 17 146 4.8 8.0 0.00 0.00 0.00 91 941.8
20260509094841 17 162 1.6 4.8 0.00 0.00 0.00 89 941.7
20260509094335 17 155 3.2 4.8 0.00 0.00 0.00 89 941.8
20260509093830 17 150 4.8 11.3 0.00 0.00 0.00 89 941.7
20260509093551 18 96 11.3 16.1 0.00 0.00 0.00 88 941.6
20260509093426 17 106 8.0 16.1 0.00 0.00 0.00 88 941.7
20260509092318 18 94 9.7 17.7 0.00 0.00 0.00 88 941.7
20260509092054 18 100 11.3 17.7 0.00 0.00 0.00 87 941.6
20260509091319 18 125 9.7 17.7 0.00 0.00 0.00 87 941.5
20260509090820 18 138 11.3 20.9 0.00 0.00 0.00 86 941.6
20260509090318 18 113 11.3 20.9 0.00 0.00 0.00 86 941.7
20260509085825 18 106 11.3 20.9 0.00 0.00 0.00 85 941.7
20260509085552 18 117 11.3 19.3 0.00 0.00 0.00 85 941.8
20260509084818 18 146 9.7 19.3 0.00 0.00 0.00 85 942.0
20260509084319 19 90 12.9 19.3 0.00 0.00 0.00 85 942.0
20260509083820 19 119 14.5 24.1 0.00 0.00 0.00 85 942.1
20260509083550 19 105 14.5 24.1 0.00 0.00 0.00 85 942.3
20260509082819 19 90 16.1 24.1 0.00 0.00 0.00 86 942.3
20260509082319 19 101 16.1 24.1 0.00 0.00 0.00 86 942.5
20260509081816 20 74 16.1 27.4 0.00 0.00 0.00 87 942.6
20260509081314 20 76 14.5 27.4 0.00 0.00 0.00 87 942.5
20260509080814 20 97 12.9 24.1 0.00 0.00 0.00 90 942.7
20260509080316 20 67 11.3 20.9 0.00 0.00 0.00 92 942.7
20260509075814 20 67 9.7 17.7 0.00 0.00 0.00 92 942.8
20260509075314 20 59 9.7 17.7 0.00 0.00 0.00 93 942.4
20260509074815 20 90 9.7 17.7 0.00 0.00 0.00 93 942.5
20260509074314 20 112 11.3 22.5 0.00 0.00 0.00 93 942.5
20260509073815 20 69 11.3 22.5 0.00 0.00 0.00 93 942.5
20260509073316 20 69 11.3 25.7 0.00 0.00 0.00 93 942.5
20260509073046 20 25 11.3 25.7 0.00 0.00 0.00 94 942.8
20260509072314 20 90 12.9 22.5 0.00 0.00 0.00 94 942.9
20260509071816 20 57 12.9 22.5 0.00 0.00 0.00 95 942.9
20260509071314 19 355 12.9 20.9 0.00 0.00 0.00 95 943.1
20260509070814 18 49 8.0 19.3 0.00 0.00 0.00 94 942.8
20260509070546 18 39 4.8 14.5 0.00 0.00 0.00 93 942.7
20260509065814 18 31 3.2 6.4 0.00 0.00 0.00 92 942.1
20260509065316 18 90 3.2 6.4 0.00 0.00 0.00 93 941.8
20260509064809 18 98 3.2 6.4 0.00 0.00 0.00 92 941.6
20260509064535 18 98 1.6 6.4 0.00 0.00 0.00 92 941.5
20260509064027 19 72 1.6 3.2 0.00 0.00 0.00 92 941.6
20260509063522 19 72 1.6 3.2 0.00 0.00 0.00 92 941.6
20260509062745 19 72 3.2 6.4 0.00 0.00 0.00 92 941.4
20260509062238 19 331 4.8 11.3 0.00 0.00 0.00 92 941.6
20260509062003 19 350 4.8 11.3 0.00 0.00 0.00 92 941.8
20260509061227 19 130 6.4 24.1 0.00 0.00 0.00 93 941.4
20260509060721 19 342 9.7 24.1 0.00 0.00 0.00 93 941.4
20260509060214 19 319 3.2 22.5 0.00 0.00 0.00 91 941.3
20260509055710 19 139 1.6 4.8 0.00 0.00 0.00 91 940.5
20260509055436 20 92 3.2 6.4 0.00 0.00 0.00 91 940.5
20260509054658 20 121 4.8 9.7 0.00 0.00 0.00 91 940.4
20260509054152 20 119 4.8 9.7 0.00 0.00 0.00 91 940.3
20260509053646 20 134 4.8 6.4 0.00 0.00 0.00 91 940.3
20260509053140 20 147 4.8 11.3 0.00 0.00 0.00 91 940.3
20260509052633 20 119 4.8 11.3 0.00 0.00 0.00 90 940.3
20260509052128 20 153 6.4 12.9 0.00 0.00 0.00 90 940.3
20260509051621 20 127 6.4 12.9 0.00 0.00 0.00 90 940.4
20260509051116 20 115 4.8 11.3 0.00 0.00 0.00 90 940.4
20260509050609 20 132 6.4 12.9 0.00 0.00 0.00 90 940.4
20260509045558 20 111 8.0 12.9 0.00 0.00 0.00 89 940.4
20260509045051 20 126 6.4 12.9 0.00 0.00 0.00 89 940.6
20260509044546 21 135 6.4 12.9 0.00 0.00 0.00 89 940.6
20260509044311 21 161 6.4 12.9 0.00 0.00 0.00 89 940.6
20260509043534 21 146 6.4 14.5 0.00 0.00 0.00 88 940.7
20260509043305 21 178 8.0 16.1 0.00 0.00 0.00 88 940.8
20260509042531 21 128 8.0 17.7 0.00 0.00 0.00 88 940.9
20260509042029 21 124 8.0 17.7 0.00 0.00 0.00 88 940.8
20260509041800 21 115 9.7 19.3 0.00 0.00 0.00 87 940.6
20260509041029 21 148 9.7 19.3 0.00 0.00 0.00 87 940.6
20260509040529 21 117 9.7 19.3 0.00 0.00 0.00 87 940.5
20260509040035 21 143 9.7 16.1 0.00 0.00 0.00 86 940.4
20260509035529 21 186 8.0 22.5 0.00 0.00 0.00 86 940.3
20260509035259 21 134 9.7 22.5 0.00 0.00 0.00 86 940.3
20260509034529 21 145 9.7 19.3 0.00 0.00 0.00 86 940.2
20260509034029 21 144 9.7 19.3 0.00 0.00 0.00 86 940.2
20260509033801 21 133 9.7 17.7 0.00 0.00 0.00 85 940.2
20260509033306 21 131 8.0 16.1 0.00 0.00 0.00 85 940.1
20260509032528 21 138 8.0 16.1 0.00 0.00 0.00 85 940.2
20260509032024 21 147 8.0 16.1 0.00 0.00 0.00 85 940.2
20260509031523 21 133 8.0 16.1 0.00 0.00 0.00 84 940.1
20260509031022 21 136 8.0 12.9 0.00 0.00 0.00 84 940.1
20260509030523 22 152 8.0 14.5 0.00 0.00 0.00 83 940.1
20260509030018 22 151 6.4 14.5 0.00 0.00 0.00 83 940.0
20260509025511 22 141 6.4 12.9 0.00 0.00 0.00 83 940.0
20260509025237 22 155 8.0 14.5 0.00 0.00 0.00 82 939.9
20260509024459 22 150 8.0 16.1 0.00 0.00 0.00 82 939.8
20260509023954 22 166 8.0 16.1 0.00 0.00 0.00 82 939.8
20260509023448 22 142 6.4 14.5 0.00 0.00 0.00 81 939.8
20260509022941 22 128 4.8 11.3 0.00 0.00 0.00 81 939.8
20260509022436 22 143 4.8 11.3 0.00 0.00 0.00 80 939.8
20260509021930 22 157 4.8 9.7 0.00 0.00 0.00 80 939.7
20260509021424 22 142 4.8 9.7 0.00 0.00 0.00 79 939.6
20260509020917 22 144 3.2 8.0 0.00 0.00 0.00 79 939.5
20260509020412 23 169 3.2 8.0 0.00 0.00 0.00 78 939.4
20260509015905 23 145 4.8 9.7 0.00 0.00 0.00 78 939.3
20260509015400 23 145 4.8 9.7 0.00 0.00 0.00 77 939.3
20260509014854 23 146 4.8 8.0 0.00 0.00 0.00 76 939.3
20260509014348 23 149 4.8 9.7 0.00 0.00 0.00 76 939.3
20260509013842 23 177 4.8 9.7 0.00 0.00 0.00 75 939.2
20260509013336 23 158 6.4 11.3 0.00 0.00 0.00 75 939.2
20260509012830 23 169 6.4 11.3 0.00 0.00 0.00 74 939.2
20260509012324 24 146 6.4 11.3 0.00 0.00 0.00 73 939.0
20260509011818 24 155 6.4 11.3 0.00 0.00 0.00 73 938.9
20260509011312 24 155 6.4 12.9 0.00 0.00 0.00 72 938.9
20260509010809 24 163 6.4 12.9 0.00 0.00 0.00 71 939.0
20260509010308 24 157 4.8 12.9 0.00 0.00 0.00 70 938.9
20260509005808 25 182 4.8 9.7 0.00 0.00 0.00 70 938.9
20260509005311 25 184 4.8 9.7 0.00 0.00 0.00 69 938.8
20260509004809 25 232 6.4 11.3 0.00 0.00 0.00 69 938.8
20260509004310 25 149 4.8 11.3 0.00 0.00 0.00 68 938.8
20260509003807 25 169 4.8 11.3 0.00 0.00 0.00 68 938.7
20260509003308 25 148 4.8 11.3 0.00 0.00 0.00 68 938.6
20260509002818 25 164 4.8 9.7 0.00 0.00 0.00 67 938.5
20260509002807 25 157 4.8 9.7 0.00 0.00 0.00 68 938.6
20260509002431 25 157 4.8 9.7 0.00 0.00 0.00 67 938.6
20260509001305 25 165 6.4 12.9 0.00 0.00 0.00 66 938.5
20260509000805 25 173 6.4 12.9 0.00 0.00 0.00 66 938.5